sat.trackr.live / text

‹ back to catalog

STARLINK-30965

NORAD 58477 · 2023-186E

PAYLOAD ACTIVE UNKNOWN

§ Identity

Operator
Country
US
Launch date
2023-12-03
Launch site
AFETR
Launch vehicle
Mass (kg)
RCS (m²)

Purposes: comms

External: N2YO · Heavens-Above · Gunter

§ Orbital elements

Epoch: 2026-09-20T15:25:59.367072Z

Period
94.27 min
Inclination
43.0022°
Eccentricity
0.0001177
Mean motion
15.27579198 rev/d
Perigee alt
482.2 km
Apogee alt
483.9 km
Semi-major
6,861.2 km
B*
2.5567e-6
RAAN
31.2020°
Arg perigee
262.7862°
Mean anomaly
97.2856°
Rev number
15,584

§ Raw data

STARLINK-309651 58477U 23186E   26263.64304823 -.00000192  00000+0  25567-5 0  99922 58477  43.0022  31.2020 0001177 262.7862  97.2856 15.27579198155845

JSON: /api/v1/satellites/58477 · /tle

For live sub-satellite position, see the globe view (requires WebGL).

§ Visibility from observer

Set your observer location to see the next 7 days of passes ≥ 10°. The values pass through the URL so the page stays shareable.

No JS? Fill the form by hand. The geolocation button needs JavaScript.